Погода в Созоново

Россия / Нижегородская область     55°47′20″N   43°15′48″E
темп.,
°C
ветер,
м/с
пор.,
м/с
влажн.,
%
обл.,
%
осадки,
мм/ч
давл.,
гПа
погр.,
м
1 августа, вс
вс100:00+17зюз35645 0.0 100869
03:00+15зюз357249 0.0 101084
06:00+16зюз2572100 0.0 1011148
09:00+22зюз3451100 0.0 1011567
12:00+25зюз4540100 0.0 10121555
15:00+27зюз4535100 0.0 10112004
18:00+26ююз354611 0.0 1011426
21:00+20ю376496 0.0 1011122
2 августа, пн
пн200:00+19ю376941 0.0 1011113
03:00+18ю347196 0.0 101161
06:00+19ю286682 0.0 1011204
09:00+25юз355082 0.0 1011451
12:00+31ююз4636100 0.0 10101326
15:00+32ююз693167 0.0 10093014
18:00+27ююв385058 0.0 1008247
21:00+25ю512565 0.2 1007419
3 августа, вт
вт300:00+21ююв41465100 0.0 1006309
03:00+22ю5146988 0.0 1005382
06:00+20ююв3680100 0.2 1005107
09:00+24юз4861100 0.2 1006655
12:00+26юз5854100 0.1 10071179
15:00+23зюз577546 1.0 1006778
18:00+23з58765 1.2 1007787
21:00+18з3796100 1.3 1009259
4 августа, ср
ср400:00+16з2598100 0.0 1009146
03:00+15зсз249622 0.0 101087
06:00+15з25915 0.0 1011172
09:00+21зсз45635 0.0 1012811
12:00+24сз355122 1.2 10131741
15:00+23сз3545100 1.3 1013553
18:00+22сз365172 0.0 1014464
21:00+19сз236196 0.0 101548
5 августа, чт
чт500:00+17с376358 0.0 1016218
03:00+15с2658100 0.0 1017147
06:00+15ссв246489 0.0 1018114
09:00+21ссв34406 0.0 1018831
12:00+24с353020 0.0 10182431
15:00+24с3429100 0.0 10172663
18:00+21с1144100 0.0 101715
21:00+18всв224895 0.0 101820